Location: Ayer Observatory
(42.2600°N, 71.0700°W)
Time: 13:31:18
(UTC-04:00)

FO-29 - Pass Details

Date: 30 August 2019
Orbit: 801 x 1321 km, 98.6° (Epoch: 16 October)

Event Time Altitude Azimuth Distance (km) Brightness Sun altitude
Exits shadow 01:54:26 14° 83° (E) 2,109 11.5 -36.3°
Maximum altitude 01:56:08 16° 60° (ENE) 1,976 11.6 -36.1°
Drops below altitude 10° 01:59:15 10° 23° (NNE) 2,391 12.3 -35.9°
Sets 02:02:26 0° 3° (N) 3,352 13.2 -35.7°
